When you browse on this site, cookies collect data to enhance your experience and personalize the content and advertising you see.
Visit our Privacy Policy to learn more. By continuing to use the site, you agree to this use of cookies and data.
  • In Latvia
  • List of Countries
  • For 7 days
  • Water Temperature
  • Satellite Maps
  • Weather Map
  • Weather Widgets
  • user-avatar
    Login

    Hourly Weather Dietikon

    Today, 18 July, Thursday

    Time Temperature Precipitation Wind Pressure Humidity
    00:00 +16°C° 0 mm 0 mps 722 mmHg 73%
    01:00 +16°C° 0 mm 0 mps 722 mmHg 70%
    02:00 +16°C° 0 mm 0 mps 722 mmHg 73%
    03:00 +15°C° 0 mm 0 mps 722 mmHg 76%
    04:00 +14°C° 0 mm 0 mps 722 mmHg 78%
    05:00 +15°C° 0 mm 0 mps 722 mmHg 76%
    06:00 +16°C° 0 mm 0 mps 722 mmHg 74%
    07:00 +17°C° 0 mm 0 mps 722 mmHg 72%
    08:00 +21°C° 0 mm 1 mps 723 mmHg 64%
    09:00 +23°C° 0 mm 2 mps 723 mmHg 55%
    10:00 +25°C° 0 mm 2 mps 723 mmHg 46%
    11:00 +26°C° 0 mm 2 mps 723 mmHg 43%
    12:00 +27°C° 0 mm 3 mps 723 mmHg 40%
    13:00 +28°C° 0 mm 3 mps 723 mmHg 38%
    14:00 +28°C° 0 mm 3 mps 723 mmHg 39%
    15:00 +27°C° 0 mm 3 mps 723 mmHg 41%
    16:00 +27°C° 0 mm 3 mps 723 mmHg 43%
    17:00 +26°C° 0 mm 2 mps 723 mmHg 50%
    18:00 +25°C° 0 mm 1 mps 723 mmHg 57%
    19:00 +23°C° 0 mm 1 mps 723 mmHg 64%
    20:00 +22°C° 0 mm 1 mps 723 mmHg 68%
    21:00 +20°C° 0 mm 1 mps 724 mmHg 71%
    22:00 +19°C° 0 mm 1 mps 724 mmHg 75%
    23:00 +18°C° 0.1 mm 1 mps 724 mmHg 78%

    Tomorrow, 19 July, Friday

    Time Temperature Precipitation Wind Pressure Humidity
    00:00 +18°C° 0.1 mm 1 mps 724 mmHg 81%
    01:00 +16°C° 0.1 mm 1 mps 724 mmHg 84%
    02:00 +15°C° 0 mm 0 mps 724 mmHg 85%
    03:00 +15°C° 0 mm 0 mps 724 mmHg 86%
    04:00 +14°C° 0 mm 0 mps 724 mmHg 87%
    05:00 +15°C° 0 mm 0 mps 724 mmHg 86%
    06:00 +16°C° 0 mm 0 mps 724 mmHg 84%
    07:00 +17°C° 0 mm 0 mps 725 mmHg 83%
    08:00 +19°C° 0 mm 0 mps 725 mmHg 74%
    09:00 +22°C° 0 mm 0 mps 725 mmHg 65%
    10:00 +26°C° 0 mm 1 mps 725 mmHg 57%
    11:00 +27°C° 0 mm 1 mps 725 mmHg 53%
    12:00 +28°C° 0 mm 1 mps 725 mmHg 48%
    13:00 +29°C° 0 mm 1 mps 725 mmHg 44%
    14:00 +29°C° 0 mm 2 mps 725 mmHg 44%
    15:00 +29°C° 0 mm 2 mps 725 mmHg 44%
    16:00 +29°C° 0 mm 2 mps 725 mmHg 44%
    17:00 +28°C° 0 mm 2 mps 725 mmHg 52%
    18:00 +26°C° 0 mm 2 mps 725 mmHg 60%
    19:00 +25°C° 0 mm 1 mps 725 mmHg 68%
    20:00 +23°C° 0 mm 1 mps 725 mmHg 74%
    21:00 +21°C° 0 mm 1 mps 725 mmHg 79%
    22:00 +17°C° 0 mm 0 mps 725 mmHg 84%
    23:00 +17°C° 0 mm 0 mps 725 mmHg 86%

    Day after tomorrow, 20 July, Saturday

    Time Temperature Precipitation Wind Pressure Humidity
    00:00 +16°C° 0 mm 0 mps 725 mmHg 88%
    01:00 +16°C° 0 mm 0 mps 725 mmHg 90%
    02:00 +15°C° 0 mm 0 mps 725 mmHg 91%
    03:00 +15°C° 0 mm 0 mps 725 mmHg 92%
    04:00 +15°C° 0 mm 0 mps 724 mmHg 93%
    05:00 +16°C° 0 mm 0 mps 725 mmHg 89%
    06:00 +17°C° 0 mm 0 mps 725 mmHg 85%
    07:00 +18°C° 0 mm 0 mps 725 mmHg 81%
    08:00 +21°C° 0 mm 0 mps 725 mmHg 71%
    09:00 +24°C° 0 mm 0 mps 725 mmHg 62%
    10:00 +27°C° 0 mm 0 mps 726 mmHg 52%
    11:00 +30°C° 0 mm 1 mps 726 mmHg 46%
    12:00 +31°C° 0 mm 2 mps 726 mmHg 41%
    13:00 +33°C° 0 mm 4 mps 726 mmHg 35%
    14:00 +33°C° 0 mm 4 mps 726 mmHg 35%
    15:00 +33°C° 0 mm 4 mps 726 mmHg 36%
    16:00 +33°C° 0 mm 4 mps 726 mmHg 36%
    17:00 +30°C° 0 mm 3 mps 726 mmHg 45%
    18:00 +29°C° 0 mm 2 mps 726 mmHg 55%
    19:00 +27°C° 0 mm 1 mps 726 mmHg 64%
    20:00 +25°C° 0.1 mm 1 mps 726 mmHg 68%
    21:00 +23°C° 0.1 mm 1 mps 726 mmHg 71%
    22:00 +22°C° 0.1 mm 1 mps 727 mmHg 75%
    23:00 +21°C° 0.1 mm 1 mps 727 mmHg 76%

    21 July, Sunday

    Time Temperature Precipitation Wind Pressure Humidity
    00:00 +21°C° 0.1 mm 1 mps 727 mmHg 78%
    01:00 +20°C° 0.1 mm 1 mps 727 mmHg 80%
    02:00 +20°C° 0.3 mm 1 mps 727 mmHg 83%
    03:00 +19°C° 0.3 mm 1 mps 727 mmHg 86%
    04:00 +19°C° 0.3 mm 1 mps 727 mmHg 89%
    05:00 +19°C° 0.3 mm 1 mps 727 mmHg 89%
    06:00 +20°C° 0.3 mm 1 mps 728 mmHg 89%
    07:00 +19°C° 0.3 mm 0 mps 728 mmHg 89%
    08:00 +23°C° 0 mm 1 mps 729 mmHg 79%
    09:00 +25°C° 0 mm 1 mps 729 mmHg 69%
    10:00 +28°C° 0 mm 1 mps 729 mmHg 58%
    11:00 +29°C° 0 mm 2 mps 729 mmHg 55%
    12:00 +29°C° 0 mm 2 mps 729 mmHg 52%
    13:00 +30°C° 0 mm 2 mps 729 mmHg 49%
    14:00 +30°C° 0 mm 2 mps 729 mmHg 50%
    15:00 +30°C° 0 mm 2 mps 729 mmHg 50%
    16:00 +31°C° 0 mm 2 mps 729 mmHg 50%
    17:00 +29°C° 0.1 mm 2 mps 729 mmHg 57%
    18:00 +28°C° 0.1 mm 1 mps 729 mmHg 65%
    19:00 +26°C° 0.1 mm 1 mps 729 mmHg 72%
    20:00 +25°C° 0 mm 1 mps 729 mmHg 75%
    21:00 +23°C° 0 mm 1 mps 730 mmHg 78%
    22:00 +21°C° 0 mm 1 mps 730 mmHg 81%
    23:00 +19°C° 0 mm 0 mps 730 mmHg 84%

    22 July, Monday

    Time Temperature Precipitation Wind Pressure Humidity
    00:00 +18°C° 0 mm 0 mps 729 mmHg 87%
    01:00 +18°C° 0 mm 0 mps 729 mmHg 90%
    02:00 +17°C° 0 mm 0 mps 729 mmHg 91%
    03:00 +17°C° 0 mm 0 mps 729 mmHg 92%
    04:00 +17°C° 0 mm 0 mps 729 mmHg 93%
    05:00 +18°C° 0 mm 0 mps 729 mmHg 90%
    06:00 +19°C° 0 mm 0 mps 729 mmHg 88%
    07:00 +20°C° 0 mm 0 mps 730 mmHg 85%
    08:00 +22°C° 0 mm 0 mps 730 mmHg 76%
    09:00 +25°C° 0 mm 0 mps 730 mmHg 67%
    10:00 +27°C° 0 mm 0 mps 730 mmHg 58%
    11:00 +31°C° 0 mm 1 mps 730 mmHg 53%
    12:00 +33°C° 0 mm 1 mps 730 mmHg 48%
    13:00 +34°C° 0 mm 1 mps 730 mmHg 43%
    14:00 +34°C° 0 mm 1 mps 730 mmHg 41%
    15:00 +35°C° 0 mm 1 mps 729 mmHg 40%
    16:00 +35°C° 0 mm 1 mps 729 mmHg 39%
    17:00 +33°C° 0 mm 1 mps 729 mmHg 48%
    18:00 +31°C° 0 mm 1 mps 729 mmHg 57%
    19:00 +29°C° 0 mm 1 mps 729 mmHg 66%
    20:00 +27°C° 0 mm 1 mps 729 mmHg 74%
    21:00 +25°C° 0 mm 1 mps 729 mmHg 81%
    22:00 +23°C° 0 mm 1 mps 729 mmHg 89%
    23:00 +23°C° 0 mm 1 mps 729 mmHg 90%

    23 July, Tuesday

    Time Temperature Precipitation Wind Pressure Humidity
    00:00 +22°C° 0 mm 1 mps 729 mmHg 91%
    01:00 +19°C° 0 mm 0 mps 729 mmHg 92%
    02:00 +19°C° 0 mm 0 mps 728 mmHg 92%
    03:00 +19°C° 0 mm 0 mps 728 mmHg 93%
    04:00 +18°C° 0 mm 0 mps 728 mmHg 93%
    05:00 +19°C° 0 mm 0 mps 728 mmHg 91%
    06:00 +20°C° 0 mm 0 mps 728 mmHg 88%
    07:00 +21°C° 0 mm 0 mps 728 mmHg 86%
    08:00 +25°C° 0 mm 1 mps 728 mmHg 77%
    09:00 +27°C° 0 mm 1 mps 728 mmHg 68%
    10:00 +30°C° 0 mm 1 mps 728 mmHg 59%
    11:00 +31°C° 0 mm 1 mps 728 mmHg 54%
    12:00 +34°C° 0 mm 2 mps 728 mmHg 48%
    13:00 +35°C° 0 mm 2 mps 728 mmHg 42%
    14:00 +35°C° 0 mm 2 mps 727 mmHg 41%
    15:00 +35°C° 0 mm 2 mps 727 mmHg 40%
    16:00 +36°C° 0 mm 2 mps 727 mmHg 39%
    17:00 +34°C° 0 mm 2 mps 726 mmHg 48%
    18:00 +31°C° 0 mm 3 mps 726 mmHg 57%
    19:00 +29°C° 0 mm 3 mps 726 mmHg 65%
    20:00 +27°C° 0 mm 2 mps 726 mmHg 72%
    21:00 +25°C° 0 mm 1 mps 726 mmHg 79%
    22:00 +23°C° 0 mm 1 mps 726 mmHg 86%
    23:00 +22°C° 0 mm 1 mps 726 mmHg 88%
    Show more